Home   Weather   34°51'N, 82°19'W   Past weeks
Flag for USA

Past Weather in 34°51'N, 82°19'W, USA — Yesterday and Last 2 Weeks

Now
55 °F

Clear.


Feels Like: 51 °F
Forecast: 70 / 44 °F
Wind: 15 mph from North

Location: Greenville Downtown Airport

Current Time: Oct 18, 2019 at 12:57:11 am

Latest Report: Oct 17, 2019 at 11:53 pm


Visibility: 10 mi

Pressure: 29.94 "Hg

Humidity: 49%

Dew Point: 36 °F

Location of 34°51'N, 82°19'WLocation

Past Weather in 34°51'N, 82°19'W — Graph

°F

34°51'N, 82°19'W Temperature Yesterday

Maximum temperature yesterday: 67 °F (at 3:53 pm)
Minimum temperature yesterday: 47 °F (at 6:53 am)
Average temperature yesterday: 57 °F

High & Low Weather Summary for the Past Weeks

 TemperatureHumidityPressure
High97 °F (Oct 3, 1:53 pm)100% (Oct 14, 3:53 am)30.30 "Hg (Oct 14, 3:53 am)
Low47 °F (Oct 17, 6:53 am)25% (Oct 3, 2:53 pm)29.69 "Hg (Oct 16, 2:53 pm)
Average69 °F71%30.06 "Hg
* Reported Oct 2 10:53 pm — Oct 17 10:53 pm, 34°51'N, 82°19'W. Weather by CustomWeather, © 2019

Note: Actual official high and low records may vary slightly from our data, if they occured in-between our weather recording intervals... More about our weather records

Advertising

34°51'N, 82°19'W Weather History for the Previous 24 Hours

Scroll right to see more
 ConditionsComfort  
Time TempWeatherWind HumidityBarometerVisibility
10:53 pm
Thu, Oct 17
55 °FClear.13 mph53%29.93 "Hg10 mi
9:53 pm55 °FClear.10 mph55%29.92 "Hg10 mi
8:53 pm57 °FClear.12 mph55%29.91 "Hg10 mi
7:53 pm62 °FClear.No wind44%29.91 "Hg10 mi
6:53 pm63 °FClear.5 mph41%29.90 "Hg10 mi
5:53 pm67 °FSunny.No wind33%29.88 "Hg10 mi
4:53 pm67 °FSunny.3 mph32%29.89 "Hg10 mi
3:53 pm67 °FSunny.6 mph32%29.89 "Hg10 mi
2:53 pm66 °FSunny.7 mph33%29.91 "Hg10 mi
1:53 pm64 °FSunny.5 mph35%29.93 "Hg10 mi
12:53 pm62 °FSunny.6 mph35%29.94 "Hg10 mi
11:53 am61 °FSunny.No wind36%29.96 "Hg10 mi
9:53 am55 °FSunny.14 mph47%29.94 "Hg10 mi
8:53 am51 °FSunny.10 mph54%29.94 "Hg10 mi
7:53 am48 °FSunny.13 mph61%29.92 "Hg10 mi
6:53 am47 °FClear.12 mph64%29.90 "Hg10 mi
5:53 am48 °FClear.10 mph61%29.88 "Hg10 mi
4:53 am49 °FClear.14 mph61%29.86 "Hg10 mi
3:53 am49 °FClear.12 mph66%29.87 "Hg10 mi
2:53 am50 °FClear.7 mph61%29.87 "Hg10 mi
1:53 am51 °FClear.9 mph61%29.87 "Hg10 mi
12:53 am52 °FClear.7 mph61%29.88 "Hg10 mi
Weather by CustomWeather, © 2019

See weather overview